Terminal Aerodrome Forecast
Issued by NWS Goodland, KS

Home | Current Version | Previous Version | Text Only | Print | Product List | Glossary On
Versions: 1 2 3 4 5 6 7 8 9 10 11 12 13 14 15 16
002
FTUS43 KGLD 240533
TAFGLD
TAF
KGLD 240533Z 2406/2506 35019G27KT P6SM OVC015
     FM241500 34018G28KT P6SM VCSH OVC010
     FM241900 35019G30KT P6SM OVC035
     FM250000 36012KT P6SM BKN040
     FM250300 VRB05KT P6SM SCT150=

USA.gov is the U.S. government's official web portal to all federal, state and local government web resources and services.